Location: Niverville
(49.6028°N, 97.0419°W)
Time: 10:10:26
(UTC-05:00)

Cosmos 1154 Rocket - Visible Passes

Search period start: 30 July 2014 00:00
Search period end: 09 August 2014 00:00
Orbit: 313 x 326 km, 81.2° (Epoch: 29 July)

Date Brightness Start Highest point End Pass type
(mag) Time Alt. Az. Time Alt. Az. Time Alt. Az.
30 Jul 1.8 04:07:03 37° SW 04:07:55 64° WNW 04:10:37 10° N visible
31 Jul 4.6 02:51:46 12° E 02:52:03 12° E 02:53:16 10° ENE visible
31 Jul 3.1 04:22:45 22° WSW 04:23:35 27° WNW 04:25:57 10° N visible
01 Aug 3.5 03:07:18 25° E 03:07:19 25° E 03:09:38 10° NE visible
01 Aug 4.1 04:38:16 12° W 04:39:11 14° WNW 04:40:39 10° NW visible
02 Aug 2.1 03:22:40 60° E 03:22:40 60° E 03:25:12 10° NNE visible
03 Aug 2.2 03:37:52 49° WNW 03:37:52 49° WNW 03:40:19 10° N visible
04 Aug 4.7 02:21:57 13° ENE 02:21:57 13° ENE 02:22:45 10° NE visible
04 Aug 3.4 03:52:53 22° WNW 03:52:53 22° WNW 03:54:59 10° NNW visible
05 Aug 4.0 02:36:50 23° ENE 02:36:50 23° ENE 02:38:17 10° NNE visible
05 Aug 4.3 04:07:46 12° WNW 04:07:47 12° WNW 04:08:52 10° NW visible
06 Aug 3.5 02:51:33 33° NNE 02:51:33 33° NNE 02:53:12 10° NNE visible
07 Aug 3.6 03:06:06 28° NNW 03:06:06 28° NNW 03:07:41 10° N visible
08 Aug 5.1 01:49:36 11° NE 01:49:36 11° NE 01:49:42 10° NE visible
08 Aug 4.1 03:20:30 17° NW 03:20:30 17° NW 03:21:42 10° NNW visible
